Location: *
(51.2167°N, 10.0667°E)
Time: 02:51:44
(UTC+00:00)

Okean 2 Rocket - Pass Details

Date: 12 December 2019
Orbit: 618 x 641 km, 82.5° (Epoch: 25 January)

Event Time Altitude Azimuth Distance (km) Brightness Sun altitude
Rises 17:20:49 0° 352° (N) 2,935 6.5 -18.9°
Reaches altitude 10° 17:23:06 10° 357° (N) 2,027 5.6 -19.3°
Maximum altitude 17:27:31 57° 76° (ENE) 755 3.1 -19.9°
Drops below altitude 10° 17:31:57 10° 155° (SSE) 2,023 5.6 -20.6°
Sets 17:34:13 0° 160° (SSE) 2,930 6.4 -21.0°
